Showing default

FLOCK 4G 25, 62646

Orbit data source: Space-Track

FLOCK 4G 25, 62646 is a payload satellite owned by Planet (US) in SSO that was launched on Tue, 14 Jan 2025 UTC via an FALCON 9 launch vehicle from the Air Force Western Test Range (AFWTR). Payload-class satellites include a variety of spacecraft equipped with specific instruments for various scientific and technological missions. These include communications satellites like Starlink; space stations such as the ISS; scientific satellites like the Hubble; Earth observation satellites from companies like Planet Labs, Umbra, and HawkEye 360; GPS; miniature CubeSats for education and research; and military/defense satellites.

Loading next visibility...
Identifier
62646, 2025-009AP
Orbit
SSO
Country
Flag of USUS
Related business
Manufacturer
Planet
Mission
Operational Commercial Imaging
Bus & Motor
CUBESAT 3U, Unknown motor
Mass
5.7 kg wet, 5.7 kg dry
Launch date (UTC)
2025-01-14 (1 year ago)
Launch vehicle
FALCON 9
Launch site
Air Force Western Test Range (AFWTR)
Object type
Payload
Rocket body
Debris
Shape & HBR
Box + 2 Pan, 1.0 m
Radar Cross Section
0.072 m², Medium (>0.1 m² and < 1m²)

Expand to show TLE details & history
Last TLE update: 16 hours ago

TLE from 16 hours ago
0 FLOCK 4G 25
1 62646U 25009AP  26171.20012967  .00008691  00000-0  30639-3 0  9992
2 62646  97.4011 253.2666 0000364 323.1602  36.9613 15.29513289 79388
Epoch: 2026-06-20T04:48Z
TLE epoch observation values (Epoch: 2026-06-20T04:48:11.203Z)
Latitude
-0.00005°
Longitude
-87.19824°
Altitude
480.17 km
Speed
7.626 km/s
True Right ascension
16h 53m 03s
True Declination
0° 00' 00"
Sunlit
Object was in full shadow at epoch
Visualization orbit readout
Latitude
Unknown
Longitude
Unknown
Altitude
Unknown
Speed
Unknown
Apparent Right ascension
Unknown
Apparent Declination
Unknown
Sunlit
N/A
Visualization observer readout
Local Sidereal Time
07:23:00
Azimuth
Unknown
Elevation
Unknown
Doppler factor
Unknown
Orbital elements
Apogee altitude
474.469 km
Perigee altitude
473.97 km
Semi-major axis
6,852.356 km
Eccentricity
0.00004
Inclination
97.4011°
RAAN
253.2666°
Arg. of periapsis
323.1602°
True anomaly
36.96381°
Mean anomaly
36.9613°
Eccentric anomaly
36.96255°
Mean motion
3.82634 °/min
Orbital period
94.08 mins
BSTAR
0.00030639
Loading maneuver chart data...
Computing Atmospheric mass density...
Loading historical data...
Loading historical data...
Loading historical data...
Loading historical data...
Loading historical data...
Loading historical data...
Loading historical data...

Documentation

Showing up to 5 results
|